This demonstration page uses our WeatherBlox Daily Observations layout. Learn more.

Left ArrowRight Arrow

44.8408, -93.29828

Hourly Observations for July 8, 2021

Temp ( °F °C ) Dew Point ( °F °C ) Humidity (%) Winds ( mph kmh ) Pressure ( in mb ) Visibility ( mi km ) Precip ( " mm )
12:53 am 00:53 Partly Cloudy 60 15.6 52 11.1 75 75 NNE 6 9 30.01 1016 10 16 0.00 0.00
1:53 am 01:53 Clear 58 14.4 52 11.1 81 81 N 6 9 30.00 1016 10 16 0.00 0.00
2:53 am 02:53 Clear 57 13.9 52 11.1 83 83 N 6 9 30.00 1016 10 16 0.00 0.00
3:53 am 03:53 Clear 57 13.9 52 11.1 83 83 NE 5 7 29.99 1016 10 16 0.00 0.00
4:53 am 04:53 Clear 55 12.8 52 11.1 90 90 NNE 5 7 29.99 1016 10 16 0.00 0.00
5:53 am 05:53 Mostly Sunny 54 12.2 51 10.6 90 90 Calm 30.01 1016 10 16 0.00 0.00
6:53 am 06:53 Partly Cloudy 57 13.9 52 11.1 83 83 NNE 7 11 30.01 1016 10 16 0.00 0.00
7:53 am 07:53 Mostly Cloudy 60 15.6 52 11.1 75 75 NE 3 6 30.01 1016 10 16 0.00 0.00
8:53 am 08:53 Mostly Cloudy 62 16.7 53 11.7 73 73 E 6 9 30.00 1016 10 16 0.00 0.00
9:53 am 09:53 Mostly Cloudy 65 18.3 54 12.2 68 68 Calm 30.01 1016 10 16 0.00 0.00
10:29 am 10:29 Mostly Cloudy 66 18.9 54 12.2 65 65 Calm 30.01 1016 10 16 0.00 0.00
10:53 am 10:53 Mostly Cloudy 65 18.3 53 11.7 66 66 Calm 30.02 1017 10 16 0.00 0.00
11:09 am 11:09 Mostly Cloudy 65 18.3 53 11.7 66 66 Calm 30.00 1016 10 16 0.00 0.00
11:53 am 11:53 Cloudy 66 18.9 52 11.1 61 61 Calm 30.02 1017 10 16 0.00 0.00
12:53 pm 12:53 Cloudy 67 19.4 53 11.7 61 61 Calm 30.01 1016 10 16 0.00 0.00
1:53 pm 13:53 Cloudy 69 20.6 53 11.7 57 57 Calm 30.00 1016 10 16 0.00 0.00
2:53 pm 14:53 Cloudy 68 20 54 12.2 61 61 Calm 30.00 1016 10 16 0.00 0.00
3:53 pm 15:53 Mostly Cloudy 69 20.6 53 11.7 57 57 VRB 3 6 29.99 1016 10 16 0.00 0.00
4:53 pm 16:53 Mostly Cloudy 73 22.8 53 11.7 50 50 ENE 6 9 29.97 1015 10 16 0.00 0.00
5:53 pm 17:53 Partly Cloudy 70 21.1 53 11.7 55 55 Calm 29.96 1015 10 16 0.00 0.00
6:53 pm 18:53 Partly Cloudy 71 21.7 53 11.7 53 53 S 6 9 29.96 1014 10 16 0.00 0.00
7:53 pm 19:53 Partly Cloudy 70 21.1 53 11.7 55 55 E 8 13 29.97 1015 10 16 0.00 0.00
8:53 pm 20:53 Partly Cloudy 69 20.6 54 12.2 59 59 E 8 13 29.98 1015 10 16 0.00 0.00
9:53 pm 21:53 Partly Cloudy 67 19.4 55 12.8 66 66 E 9 15 29.98 1015 10 16 0.00 0.00
10:53 pm 22:53 Cloudy 66 18.9 56 13.3 70 70 E 8 13 30.01 1016 10 16 0.00 0.00
11:53 pm 23:53 Mostly Cloudy 66 18.9 57 13.9 73 73 SE 8 13 30.01 1016 10 16 0.00 0.00

Powered by AerisWeather